, TX

(GMT )
Port Isabel

Weather History for KPIL - October, 2011

Change the Weather History Date:

Wednesday, October 12, 2011

  Actual Average Record
Temperature  
Mean Temperature 84 °F -  
Max Temperature 91 °F - - ()
Min Temperature 77 °F - - ()
Cooling Degree Days 19    
Growing Degree Days 34 (Base 50)    
Moisture  
Dew Point 73 °F    
Average Humidity 73    
Maximum Humidity 90    
Minimum Humidity 48    
Precipitation  
Precipitation 0.00 in - - ()
Sea Level Pressure  
Sea Level Pressure 29.79 in    
Wind  
Wind Speed 6 mph (SSE)    
Max Wind Speed 15 mph    
Max Gust Speed 20 mph    
Visibility 10 miles    
Events      
T = Trace of Precipitation, MM = Missing Value Source: NWS Daily Summary

Daily Weather History Graph

Daily Weather History Graph

Search for Another Location

Airport or City:

Trip Planner

Search our weather history database for the weather conditions in past years. The results will help you decide how hot, cold, wet, or windy it might be!

Date:

Astronomy

Oct. 12, 2011 Rise Set
Actual Time 7:26 AM CDT 7:04 PM CDT
Civil Twilight 7:03 AM CDT 7:27 PM CDT
Nautical Twilight 6:36 AM CDT 7:54 PM CDT
Astronomical Twilight 6:09 AM CDT 8:21 PM CDT
Moon 7:18 PM CDT (10/12) 7:53 AM CDT (10/12)
Length of Visible Light 12h 24m
Length of Day
11h 37m
Full, 100% of the Moon is Illuminated
Oct 12
Full
Oct 19
Last Quarter
Oct 26
New
Nov 2
First Quarter
Nov 10
Full

Hourly Weather History & Observations

Time (CDT) Temp. Heat Index Dew Point Humidity Pressure Visibility Wind Dir Wind Speed Gust Speed Precip Events Conditions
12:53 AM 79.0 °F - 71.1 °F 77% 29.84 in 10.0 mi SSE 5.8 mph - N/A   Clear
1:53 AM 79.0 °F - 71.1 °F 77% 29.83 in 10.0 mi Calm Calm - N/A   Clear
2:53 AM 78.1 °F - 72.0 °F 81% 29.82 in 10.0 mi Calm Calm - N/A   Clear
3:53 AM 77.0 °F - 72.0 °F 84% 29.79 in 10.0 mi South 4.6 mph - N/A   Clear
4:53 AM 77.0 °F - 72.0 °F 84% 29.79 in 10.0 mi SSE 3.5 mph - N/A   Clear
5:53 AM 77.0 °F - 73.0 °F 88% 29.79 in 10.0 mi South 3.5 mph - N/A   Clear
6:53 AM 77.0 °F - 73.0 °F 88% 29.80 in 10.0 mi South 4.6 mph - N/A   Clear
7:53 AM 77.0 °F - 73.0 °F 88% 29.80 in 10.0 mi SSE 3.5 mph - N/A   Clear
8:53 AM 81.0 °F 85.8 °F 73.0 °F 77% 29.81 in 10.0 mi SSE 5.8 mph - N/A   Clear
9:53 AM 84.0 °F 90.2 °F 73.0 °F 69% 29.83 in 10.0 mi South 9.2 mph - N/A   Clear
10:53 AM 84.9 °F 90.1 °F 71.1 °F 63% 29.82 in 10.0 mi South 12.7 mph - N/A   Clear
11:53 AM 87.1 °F 93.6 °F 72.0 °F 61% 29.82 in 10.0 mi South 8.1 mph - N/A   Partly Cloudy
12:53 PM 90.0 °F 95.4 °F 70.0 °F 52% 29.80 in 10.0 mi South 10.4 mph - N/A   Clear
1:53 PM 91.0 °F 95.6 °F 69.1 °F 48% 29.77 in 10.0 mi South 9.2 mph 19.6 mph N/A   Clear
2:53 PM 91.9 °F 97.4 °F 70.0 °F 48% 29.75 in 10.0 mi SSW 8.1 mph - N/A   Partly Cloudy
3:53 PM 90.0 °F 97.9 °F 73.0 °F 57% 29.73 in 10.0 mi SSE 15.0 mph - N/A   Scattered Clouds
4:53 PM 90.0 °F 97.9 °F 73.0 °F 57% 29.73 in 10.0 mi SSE 12.7 mph - N/A   Partly Cloudy
5:53 PM 88.0 °F 94.7 °F 72.0 °F 59% 29.73 in 10.0 mi SSE 11.5 mph - N/A   Clear
6:53 PM 84.0 °F 90.2 °F 73.0 °F 69% 29.75 in 10.0 mi SE 10.4 mph - N/A   Clear
7:53 PM 82.0 °F 88.6 °F 75.0 °F 79% 29.76 in 10.0 mi SE 9.2 mph - N/A   Clear
8:53 PM 80.1 °F 85.1 °F 75.0 °F 85% 29.78 in 10.0 mi SE 5.8 mph - N/A   Clear
9:53 PM 80.1 °F 85.1 °F 75.0 °F 85% 29.79 in 10.0 mi SE 5.8 mph - N/A   Clear
10:53 PM 79.0 °F - 75.0 °F 88% 29.81 in 10.0 mi SSE 5.8 mph - N/A   Clear
11:53 PM 78.1 °F - 75.0 °F 90% 29.82 in 10.0 mi SSE 5.8 mph - N/A   Unknown